Time_in_sec,Mx,My,Mz
1323445087.00055408,-0.31298047,0.48445794,-0.83390719
1323445087.04960871,-0.31104842,0.48309371,-0.83200788
1323445087.10059118,-0.31192699,0.48360211,-0.83371598
1323445087.15392780,-0.31289384,0.48263749,-0.83261532
1323445087.19253707,-0.31152073,0.48239210,-0.83355772
1323445087.25250769,-0.31156644,0.48382062,-0.83191401
1323445087.30053830,-0.31322056,0.48395261,-0.83136845
1323445087.34996223,-0.31442899,0.48228911,-0.83231467
1323445087.40155339,-0.31123984,0.48154342,-0.83328146
1323445087.44064236,-0.31310505,0.48373675,-0.83390886
1323445087.50428653,-0.31208712,0.48372954,-0.83423531
1323445087.54969621,-0.31172422,0.48070049,-0.83279234
1323445087.60155892,-0.31241238,0.48191753,-0.83334833
1323445087.65253282,-0.31369179,0.48291335,-0.83520925
1323445087.68956923,-0.31035614,0.48288468,-0.83579093
1323445087.74968100,-0.31032950,0.48420247,-0.83516175
1323445087.80055380,-0.31272903,0.48169068,-0.83438337
1323445087.84869909,-0.31300905,0.48241892,-0.83465868
1323445087.90167069,-0.31190872,0.48193827,-0.83586919
1323445087.94965219,-0.31213021,0.48265538,-0.83512193
1323445088.00160408,-0.31292483,0.48170462,-0.83554089
1323445088.05253410,-0.31210288,0.48192859,-0.83473301
1323445088.10057640,-0.31174940,0.48289338,-0.83523017
1323445088.14952636,-0.31340000,0.48158154,-0.83480155
1323445088.18851328,-0.31343365,0.48315138,-0.83519685
1323445088.24969435,-0.31260538,0.48253229,-0.83438259
1323445088.29852891,-0.31179050,0.48468181,-0.83346140
1323445088.34851336,-0.31291768,0.48192045,-0.83312118
1323445088.40148354,-0.31255597,0.48276341,-0.83348966
1323445088.44070268,-0.31127989,0.48299420,-0.83380365
1323445088.50149035,-0.31139132,0.48539734,-0.83318979
1323445088.55038214,-0.31073198,0.48139641,-0.83121401
1323445088.60150480,-0.31176260,0.48212764,-0.83102083
1323445088.64951611,-0.31197011,0.48370725,-0.83219016
1323445088.68963385,-0.31102714,0.48395482,-0.83379662
1323445088.75037622,-0.31179434,0.48441866,-0.83129370
1323445088.80154872,-0.31296435,0.48464870,-0.82906592
1323445088.85263324,-0.31318617,0.48247957,-0.82868040
1323445088.90165067,-0.31383047,0.48368824,-0.82846946
1323445088.94153452,-0.31276336,0.48198798,-0.82814407
1323445089.00055122,-0.31198695,0.48342323,-0.82798439
1323445089.04954147,-0.31172523,0.48435882,-0.82555586
1323445089.09823918,-0.31167480,0.48425230,-0.82695389
1323445089.15258408,-0.31227082,0.48388836,-0.82609200
1323445089.18964791,-0.31203818,0.48461229,-0.82646668
1323445089.24855947,-0.31123006,0.48375651,-0.82603413
1323445089.30164886,-0.31292781,0.48582104,-0.82601434
1323445089.34986782,-0.31285682,0.48316172,-0.82509965
1323445089.40164375,-0.31151015,0.48352268,-0.82643002
1323445089.44964957,-0.31376103,0.48319396,-0.82731539
1323445089.50213027,-0.31097275,0.48293570,-0.82843506
1323445089.54965305,-0.31324789,0.48136228,-0.82536304
1323445089.60062957,-0.31310213,0.48198250,-0.82727069
1323445089.64209151,-0.31204021,0.48292899,-0.82670963
1323445089.69364905,-0.31126663,0.48376349,-0.82667321
1323445089.74997973,-0.31182930,0.48558128,-0.82722664
1323445089.80164886,-0.31422594,0.48463234,-0.82620436
1323445089.84964800,-0.31353572,0.48391929,-0.82781792
1323445089.90197992,-0.31167024,0.48247081,-0.82936180
1323445089.94165206,-0.31338197,0.48249352,-0.82983792
1323445090.00067973,-0.31061193,0.48389906,-0.82880437
1323445090.05249000,-0.31309098,0.48342353,-0.82689810
1323445090.10185766,-0.31135693,0.48392430,-0.83050174
1323445090.14982414,-0.31174046,0.48404762,-0.83039618
1323445090.18952942,-0.31344867,0.48262650,-0.83098924
1323445090.25364971,-0.31193355,0.48370028,-0.83155102
1323445090.29982400,-0.31245169,0.48346511,-0.83157772
1323445090.34965038,-0.31309846,0.48032147,-0.82967955
1323445090.40052342,-0.31251687,0.48261234,-0.83055592
1323445090.44274521,-0.31208187,0.48322415,-0.83193797
1323445090.50155568,-0.31173861,0.48262745,-0.83280683
1323445090.54982543,-0.31234220,0.48152006,-0.82990152
1323445090.60165215,-0.31309360,0.48142624,-0.83172578
1323445090.65360475,-0.31179792,0.48372111,-0.83370978
1323445090.68967175,-0.31344965,0.48060554,-0.83352321
1323445090.74968696,-0.31312799,0.48289928,-0.83441383
1323445090.80055141,-0.31190258,0.48131245,-0.83357096
1323445090.85260534,-0.31267145,0.48179996,-0.83336169
1323445090.90063190,-0.31199461,0.48385552,-0.83486825
1323445090.94159079,-0.31394842,0.48168960,-0.83304858
1323445091.00158191,-0.31335062,0.48181266,-0.83390862
1323445091.04964280,-0.31325722,0.48299748,-0.83212817
1323445091.10452461,-0.31277463,0.48290199,-0.83503157
1323445091.14963102,-0.31350884,0.48266131,-0.83430558
1323445091.18963623,-0.31419361,0.48147243,-0.83509910
1323445091.24852824,-0.31298333,0.48171577,-0.83656353
1323445091.30152822,-0.31163582,0.48313561,-0.83548051
1323445091.35040903,-0.31231916,0.47999892,-0.83422148
1323445091.40051007,-0.31361413,0.48111793,-0.83633894
1323445091.43853927,-0.31127715,0.48145360,-0.83621341
1323445091.50047493,-0.31309670,0.48339772,-0.83607203
1323445091.54952383,-0.31294587,0.48158839,-0.83592349
1323445091.60056520,-0.31251752,0.48015699,-0.83767360
1323445091.64860415,-0.31320480,0.48125359,-0.83822870
1323445091.68955112,-0.31386665,0.48090219,-0.83851731
1323445091.75039172,-0.31366235,0.48151127,-0.83940232
1323445091.80141973,-0.31301823,0.48051980,-0.83732140
1323445091.84965754,-0.31386855,0.48018098,-0.83863968
1323445091.90230656,-0.31400096,0.48128858,-0.84082085
1323445091.94148302,-0.31362420,0.47933927,-0.83900255
1323445092.00152779,-0.31506908,0.48214719,-0.84126765
1323445092.04971576,-0.31426093,0.48129141,-0.84083509
1323445092.10170007,-0.31376845,0.48105043,-0.84131604
1323445092.15027070,-0.31350410,0.47948334,-0.84141785
1323445092.18956327,-0.31251082,0.47984159,-0.84213048
1323445092.25363731,-0.31453371,0.48105618,-0.84110320
1323445092.30470204,-0.31285116,0.48200113,-0.84101778
1323445092.35365057,-0.31529739,0.47889692,-0.84112960
1323445092.40054011,-0.31442103,0.48023954,-0.84376687
1323445092.45253277,-0.31414375,0.47987261,-0.84349424
1323445092.50053072,-0.31484854,0.47940916,-0.84454888
1323445092.55012274,-0.31541902,0.47855929,-0.84329993
1323445092.60051727,-0.31396279,0.47793728,-0.84283352
1323445092.65366030,-0.31473309,0.48037258,-0.84467679
1323445092.69000006,-0.31475285,0.48184285,-0.84710920
1323445092.74951839,-0.31351709,0.48277956,-0.84577411
1323445092.80165267,-0.31415474,0.47939366,-0.84374630
1323445092.85252380,-0.31511313,0.47905210,-0.84468824
1323445092.90165997,-0.31438419,0.48097745,-0.84529907
1323445092.95404768,-0.31385347,0.47952655,-0.84525967
1323445093.00057936,-0.31409228,0.48060772,-0.84477079
1323445093.04965973,-0.31405857,0.48117927,-0.84184253
1323445093.09885120,-0.31315681,0.48225322,-0.84180081
1323445093.14988136,-0.31440192,0.48081389,-0.84109426
1323445093.18960381,-0.31322277,0.48248297,-0.84065932
1323445093.25251079,-0.31289157,0.48174497,-0.83948922
1323445093.30052423,-0.31238091,0.48219875,-0.83729845
1323445093.34985566,-0.31268221,0.48206589,-0.83578503
1323445093.40050125,-0.31433320,0.48236421,-0.83969998
1323445093.44156170,-0.31238076,0.48198155,-0.83959031
1323445093.50052309,-0.31292447,0.48341158,-0.83759165
1323445093.54970884,-0.31283301,0.48387522,-0.83593357
1323445093.60048079,-0.31430963,0.48233637,-0.83702278
1323445093.65280414,-0.31276795,0.48376590,-0.83707595
1323445093.70152497,-0.31306931,0.48149163,-0.83809561
1323445093.74968696,-0.31414858,0.48208851,-0.83650255
1323445093.80050635,-0.31417349,0.48170912,-0.83471739
1323445093.84870458,-0.31395099,0.48183367,-0.83534318
1323445093.90299273,-0.31176126,0.48135555,-0.83789557
1323445093.94159365,-0.31308758,0.48315546,-0.83594239
1323445094.00052834,-0.31357735,0.48303515,-0.83545870
1323445094.05252957,-0.31458896,0.48219931,-0.83512592
1323445094.10055256,-0.31342968,0.48437658,-0.83724397
1323445094.14955974,-0.31343466,0.48230973,-0.83531833
1323445094.20157051,-0.31242225,0.48206303,-0.83577079
1323445094.24861360,-0.31255651,0.48459077,-0.83554131
1323445094.29842639,-0.31229100,0.48364812,-0.83781350
1323445094.35059571,-0.31187603,0.48166817,-0.83306235
1323445094.40157223,-0.31181523,0.48408520,-0.83396816
1323445094.44850922,-0.31280300,0.48396641,-0.83312947
1323445094.50156879,-0.31062517,0.48527116,-0.83340174
1323445094.54960036,-0.31336719,0.48227352,-0.83187419
1323445094.60156345,-0.31201887,0.48261082,-0.83091086
1323445094.64856339,-0.31165805,0.48357421,-0.83128023
1323445094.69034886,-0.31202877,0.48393559,-0.83092082
1323445094.74965525,-0.31129795,0.48658219,-0.83140934
1323445094.80164313,-0.31215060,0.48499450,-0.82838678
1323445094.84851432,-0.31233355,0.48524654,-0.82929051
1323445094.90165949,-0.31247070,0.48503214,-0.83171731
1323445094.94850492,-0.31368735,0.48349047,-0.83279228
1323445095.00051260,-0.31193087,0.48333898,-0.83154827
1323445095.04970431,-0.31234470,0.48380551,-0.82966310
1323445095.09916139,-0.31120014,0.48502347,-0.83215737
1323445095.15368080,-0.31286362,0.48465285,-0.82957011
1323445095.19365764,-0.31128380,0.48391038,-0.82922351
1323445095.25258923,-0.31270602,0.48466951,-0.83134538
1323445095.30051804,-0.31297055,0.48645383,-0.82895172
1323445095.35002327,-0.31213248,0.48354790,-0.82824808
1323445095.40166259,-0.31137967,0.48501098,-0.83076555
1323445095.44166279,-0.31234831,0.48428726,-0.82966667
1323445095.50171089,-0.31113729,0.48462737,-0.82883835
1323445095.54968071,-0.31271169,0.48464724,-0.82917953
1323445095.60068202,-0.31188804,0.48366827,-0.82849038
1323445095.65249968,-0.31186494,0.48428851,-0.83027732
1323445095.69364667,-0.31195104,0.48428157,-0.82951748
1323445095.74978971,-0.31104276,0.48643664,-0.82922828
1323445095.80165410,-0.31126535,0.48535001,-0.82872307
1323445095.85254669,-0.31201610,0.48439091,-0.82837510
1323445095.90393853,-0.31217882,0.48584172,-0.82877660
1323445095.95365381,-0.31261286,0.48393020,-0.82980603
1323445096.00157166,-0.31274763,0.48378891,-0.82764637
1323445096.05249310,-0.31185338,0.48294008,-0.82797360
1323445096.10169363,-0.31272170,0.48500994,-0.82931006
1323445096.14988208,-0.31161895,0.48342314,-0.82834649
1323445096.19254470,-0.31292146,0.48379871,-0.82842046
1323445096.25263619,-0.31298813,0.48607305,-0.82703876
1323445096.30052042,-0.31165996,0.48617366,-0.82645708
1323445096.35264802,-0.31268656,0.48363370,-0.82432920
1323445096.40071893,-0.31271747,0.48366290,-0.82713419
1323445096.45271015,-0.31359041,0.48537287,-0.82859570
1323445096.50153971,-0.31265521,0.48295280,-0.82839984
1323445096.54954982,-0.31267458,0.48281291,-0.82648873
1323445096.60157204,-0.31251636,0.48196426,-0.82609177
1323445096.65357256,-0.31104696,0.48446655,-0.82500982
1323445096.68961644,-0.31292444,0.48341513,-0.82625186
1323445096.74962807,-0.31190529,0.48617372,-0.82621568
1323445096.80167484,-0.31078535,0.48444006,-0.82270187
1323445096.85258937,-0.31147364,0.48469502,-0.82337844
1323445096.90168309,-0.31108093,0.48315015,-0.82576680
1323445096.94052863,-0.31059480,0.48493150,-0.82384163
1323445097.00068450,-0.31240588,0.48749864,-0.82574290
1323445097.05256748,-0.31308460,0.48472187,-0.82435876
1323445097.10157728,-0.31241208,0.48266596,-0.82417983
1323445097.14859509,-0.31103596,0.48494551,-0.82475781
1323445097.18964148,-0.31214803,0.48485041,-0.82609218
1323445097.24170470,-0.31188092,0.48506337,-0.82365817
1323445097.30159831,-0.31149605,0.48866796,-0.82328057
1323445097.34989500,-0.31309488,0.48433968,-0.82231796
1323445097.40064073,-0.31131616,0.48374960,-0.82527429
1323445097.44152498,-0.31122831,0.48469496,-0.82361984
1323445097.50209904,-0.31133622,0.48565426,-0.82312292
1323445097.54964328,-0.31290254,0.48459026,-0.82345593
1323445097.60168529,-0.31375301,0.48446864,-0.82248235
1323445097.64852190,-0.31334287,0.48352176,-0.82449174
1323445097.70167327,-0.31127948,0.48470470,-0.82451463
1323445097.75065041,-0.31149951,0.48229468,-0.82412726
1323445097.80163741,-0.31253394,0.48158348,-0.82417881
1323445097.84964705,-0.31164038,0.48277923,-0.82426584
1323445097.89882755,-0.31287134,0.48412660,-0.82523471
1323445097.94852996,-0.31215826,0.48328894,-0.82646382
1323445098.00164199,-0.31316012,0.48134556,-0.82382917
1323445098.05019474,-0.31255567,0.48351184,-0.82432115
1323445098.10167456,-0.31262520,0.48304403,-0.82559580
1323445098.15020251,-0.31236154,0.48352152,-0.82545733
1323445098.20065165,-0.31315234,0.48401320,-0.82563156
1323445098.24965596,-0.31296745,0.48448235,-0.82460546
1323445098.30220294,-0.31204498,0.48278630,-0.82454288
1323445098.35350132,-0.31292480,0.48170820,-0.82420111
1323445098.40148044,-0.31065172,0.48277760,-0.82510358
1323445098.45253849,-0.31319350,0.48366025,-0.82639575
1323445098.50151682,-0.31305182,0.48209319,-0.82637686
1323445098.54992151,-0.31275630,0.48124170,-0.82584494
1323445098.60150886,-0.31245685,0.48279476,-0.82494771
1323445098.64951587,-0.31244648,0.48413903,-0.82686794
1323445098.69004750,-0.31184775,0.48414165,-0.82772708
1323445098.75356150,-0.31255466,0.48435348,-0.82419968
1323445098.80150533,-0.31214714,0.48472998,-0.82609123
1323445098.85255647,-0.31260496,0.48424280,-0.82509357
1323445098.90052819,-0.31150925,0.48340225,-0.82642913
1323445098.95252252,-0.31313926,0.48499614,-0.82754904
1323445099.00154185,-0.31299242,0.48196161,-0.82535332
1323445099.05263829,-0.31208614,0.48243335,-0.82530707
1323445099.10192156,-0.31208965,0.48387718,-0.82519013
1323445099.15250731,-0.31122428,0.48474088,-0.82807940
1323445099.20458341,-0.31095996,0.48435307,-0.82576877
1323445099.25251961,-0.31311038,0.48328361,-0.82498699
1323445099.30159402,-0.31257120,0.48363504,-0.82457769
1323445099.34981489,-0.31206781,0.48291093,-0.82492721
1323445099.40166163,-0.31214175,0.48400736,-0.82608581
1323445099.45365262,-0.31234780,0.48363915,-0.82520258
1323445099.50183249,-0.31148759,0.48265320,-0.82387429
1323445099.55252361,-0.31241027,0.48242509,-0.82417804
1323445099.60160446,-0.31321019,0.48315904,-0.82448190
1323445099.65254045,-0.31275132,0.48330858,-0.82777059
1323445099.70170426,-0.31214723,0.48376790,-0.82621181
1323445099.74963689,-0.31294924,0.48399782,-0.82434618
1323445099.80168891,-0.31350389,0.48259035,-0.82742447
1323445099.85264730,-0.31247589,0.48436180,-0.82508731
1323445099.89962864,-0.31195581,0.48413888,-0.82735074
1323445099.94953322,-0.31200227,0.48547062,-0.82799983
1323445100.00164318,-0.31161639,0.48327905,-0.82605189
1323445100.04852700,-0.31264815,0.48220655,-0.82610071
1323445100.10154366,-0.31053647,0.48181689,-0.82547265
1323445100.14950347,-0.31260750,0.48438689,-0.82738817
1323445100.20162439,-0.31261969,0.48328349,-0.82546973
1323445100.24961281,-0.31257492,0.48315471,-0.82470191
1323445100.30178094,-0.31292561,0.48279071,-0.82408142
1323445100.34962559,-0.31211936,0.48121372,-0.82377124
1323445100.40162015,-0.31184897,0.48469651,-0.82314420
1323445100.45261955,-0.31170997,0.48349074,-0.82312799
1323445100.50160909,-0.31252757,0.48288181,-0.82163942
1323445100.55037689,-0.31246611,0.48325422,-0.82278544
1323445100.60050941,-0.31257877,0.48289156,-0.82253420
1323445100.64965677,-0.31172293,0.48346987,-0.82108992
1323445100.69841504,-0.31087235,0.48455355,-0.82194299
1323445100.74854302,-0.31315926,0.48240441,-0.82141578
1323445100.80052304,-0.31050932,0.48248661,-0.82037938
1323445100.84851432,-0.31337729,0.48285699,-0.81837302
1323445100.90165353,-0.31217346,0.48298129,-0.81996441
1323445100.94855046,-0.31157666,0.48344201,-0.81853342
1323445101.01021814,-0.31270814,0.48320699,-0.81795663
1323445101.04965019,-0.31271276,0.48284709,-0.81808174
1323445101.10221434,-0.31228006,0.48103073,-0.81753546
1323445101.14955258,-0.31311375,0.48237240,-0.81835514
1323445101.20153213,-0.31093407,0.48343629,-0.81862563
1323445101.25254440,-0.31217819,0.48283860,-0.81779760
1323445101.30082178,-0.31300053,0.48090768,-0.81655473
1323445101.35008502,-0.31219092,0.48356259,-0.81793088
1323445101.40124893,-0.31340846,0.48214135,-0.81900674
1323445101.44965887,-0.31322539,0.48285139,-0.81798244
1323445101.50209570,-0.31307617,0.48320708,-0.81759459
1323445101.54965472,-0.31065053,0.48340559,-0.81593418
1323445101.60153413,-0.31168878,0.48125196,-0.81623054
1323445101.64998221,-0.31237248,0.48186684,-0.81678200
1323445101.70154738,-0.31194648,0.48368296,-0.81817317
1323445101.75252438,-0.31234321,0.48186126,-0.81627071
1323445101.80182552,-0.31203386,0.48208952,-0.81536347
1323445101.85364985,-0.31171143,0.48330075,-0.81637377
1323445101.90195751,-0.31073737,0.48330188,-0.81746715
1323445101.95249677,-0.31234771,0.48246342,-0.81627524
1323445102.00197983,-0.31313455,0.48418030,-0.81849658
1323445102.04061675,-0.31158140,0.48212001,-0.81877911
1323445102.10051680,-0.31300303,0.48319316,-0.81631631
1323445102.14979100,-0.31296980,0.48441279,-0.81785214
1323445102.20058036,-0.31163508,0.48441523,-0.81943548
1323445102.24967384,-0.31010300,0.48341796,-0.81768811
1323445102.30180502,-0.31221187,0.48440841,-0.81819284
1323445102.34952950,-0.31257802,0.48298836,-0.82024139
1323445102.40064311,-0.31227326,0.48285672,-0.81945932
1323445102.45253062,-0.31208545,0.48370942,-0.82060182
1323445102.50064039,-0.31349060,0.48335963,-0.82029402
1323445102.54948735,-0.31359223,0.48347592,-0.81979078
1323445102.60052729,-0.31274918,0.48263684,-0.82101274
1323445102.64973974,-0.31075430,0.48419362,-0.82218874
1323445102.69867349,-0.31163323,0.48299506,-0.82184613
1323445102.74965048,-0.31200495,0.48251483,-0.82160819
1323445102.80054641,-0.31126693,0.48419791,-0.82208943
1323445102.85248971,-0.31172755,0.48310995,-0.82121503
1323445102.90053606,-0.31104913,0.48300049,-0.82296091
1323445102.94850159,-0.31212917,0.48350057,-0.82366067
1323445103.00163984,-0.31312886,0.48302329,-0.82307494
1323445103.04964519,-0.31328633,0.48396870,-0.82117909
1323445103.10154152,-0.31386846,0.48350519,-0.82235438
1323445103.14963508,-0.31288251,0.48386487,-0.82319486
1323445103.20163274,-0.31155694,0.48528886,-0.82249534
1323445103.23963857,-0.31390235,0.48315087,-0.82299078
1323445103.30060458,-0.31245217,0.48529604,-0.82228959
1323445103.35037827,-0.31203309,0.48432413,-0.82187748
1323445103.40156484,-0.31220785,0.48445433,-0.82265246
1323445103.44949794,-0.31071463,0.48435301,-0.82601011
1323445103.49836755,-0.31435642,0.48196474,-0.82428133
1323445103.54950333,-0.31296322,0.48313531,-0.82242960
1323445103.60052538,-0.31299517,0.48350221,-0.82294363
1323445103.65039611,-0.31145722,0.48445135,-0.82312095
1323445103.70051336,-0.31219512,0.48373035,-0.82251918
1323445103.75036645,-0.31247163,0.48301476,-0.82291144
1323445103.80056882,-0.31225464,0.48289984,-0.82366323
1323445103.84965062,-0.31287810,0.48230061,-0.82331085
1323445103.90463448,-0.31325307,0.48400906,-0.82512736
1323445103.94851303,-0.31152099,0.48614720,-0.82402843
1323445104.00050473,-0.31253386,0.48254555,-0.82405823
1323445104.05254102,-0.31324035,0.48328504,-0.82499409
1323445104.10103297,-0.31209806,0.48207486,-0.82556003
1323445104.14968419,-0.31219667,0.48471606,-0.82469231
1323445104.20156312,-0.31180772,0.48387015,-0.82479239
1323445104.24965549,-0.31299582,0.48436749,-0.82511586
1323445104.30171871,-0.31278098,0.48278651,-0.82381868
1323445104.34966040,-0.31268665,0.48267159,-0.82444978
1323445104.40053368,-0.31271580,0.48363927,-0.82484049
1323445104.44952989,-0.31180504,0.48350886,-0.82478970
1323445104.50063992,-0.31352803,0.48230773,-0.82334650
1323445104.54995656,-0.31298807,0.48157665,-0.82305694
1323445104.60063338,-0.31156245,0.48504940,-0.82262135
1323445104.65254569,-0.31338522,0.48254439,-0.82308555
1323445104.69898295,-0.31296396,0.48303854,-0.82472241
1323445104.74955654,-0.31245866,0.48303562,-0.82494950
1323445104.80089808,-0.31244594,0.48231164,-0.82481629
1323445104.85248804,-0.31195441,0.48337036,-0.82288569
1323445104.90169024,-0.31262511,0.48400611,-0.82547522
